Regional Weather Roundup
Issued by NWS

Home | Current Version | Previous Version | Graphics & Text | Print | Product List | Glossary On
Versions: 1 2 3 4 5 6 7 8 9 10 11 12 13 14 15 16 17 18 19 20 21 22 23 24 25 26 27 28
000
ASUS45 KBOI 232110
RWRID

IDAHO REGIONAL WEATHER ROUNDUP
NATIONAL WEATHER SERVICE BOISE ID
300 PM MDT TUE MAY 23 2017

NOTE: "FAIR" INDICATES FEW OR NO CLOUDS BELOW 12000 FEET
WITH NO SIGNIFICANT WEATHER AND/OR OBSTRUCTIONS TO VISIBILITY

IDZ012-014-232200-
SOUTHWEST IDAHO


CITY           SKY/WX    TMP DP  RH WIND       PRES   REMARKS
BOISE          SUNNY     83  40  21 VRB5      30.03F
CALDWELL       SUNNY     86  44  23 E5        30.01F
MOUNTAIN HOME  SUNNY     83  36  18 SW5       30.04F
$$

IDZ016-017-232200-
SOUTHCENTRAL IDAHO


CITY           SKY/WX    TMP DP  RH WIND       PRES   REMARKS
BURLEY         SUNNY     76  40  27 VRB5      30.09F
JEROME         SUNNY     77  36  22 W7        30.10F
TWIN FALLS     SUNNY     78  40  25 MISG      30.09F
$$

IDZ019>023-232200-
SOUTHEAST IDAHO


CITY           SKY/WX    TMP DP  RH WIND       PRES   REMARKS
IDAHO FALLS    SUNNY     74  38  27 S7        30.12F
POCATELLO      MOSUNNY   76  42  29 W8        30.12F
REXBURG        SUNNY     72  38  29 W10       30.12F
$$

IDZ006-010-011-018-031-032-232200-
CENTRAL IDAHO MOUNTAINS


CITY           SKY/WX    TMP DP  RH WIND       PRES   REMARKS
MCCALL         SUNNY     74  37  26 W9        30.11F
HAILEY         SUNNY     72  45  37 SE9       30.16F
STANLEY          N/A     71  29  21 N12       30.21F
SALMON         SUNNY     75  45  33 N7        30.00F
CHALLIS        SUNNY     77  32  19 VRB6      30.07F
$$

IDZ002-004-006-007-026-232200-
NORTHERN IDAHO


CITY           SKY/WX    TMP DP  RH WIND       PRES   REMARKS
LEWISTON       SUNNY     84  52  33 W6        29.90F
LOWELL           N/A     88  43  20 VRB6      29.88F
COEUR D`ALENE  SUNNY     81  48  31 W15       29.93F
MULLAN PASS    SUNNY     64  34  32 VRB6      30.10F
$$




USA.gov is the U.S. government's official web portal to all federal, state and local government web resources and services.